Flag for Macedonia, Republic of Weather past 2 weeks in Skopje, Macedonia, Republic of

Now
61 °F

Passing clouds.


Feels Like: 61 °F
Forecast: 58 / 86 °F
Wind: 2 mph from East

Location: Skopje-Petrovec

Current Time: Sep 20, 2014 at 2:37:54 AM

Latest Report: Sep 20, 2014 at 2:00 AM


Visibility: N/A

Pressure: 30.18 "Hg

Humidity: 88%

Dew point: 57 °F

Location of SkopjeLocation

Historic Weather in Skopje — Graph

°F

Skopje temperature yesterday

Maximum temperature yesterday: 79 °F (at 3:30 PM)
Minimum temperature yesterday: 50 °F (at 6:30 AM)
Average temperature yesterday: 65 °F

Past Weeks' High & Low Weather Summary

 TemperatureHumidityPressure
High84 °F (Sep 13, 2:00 PM)100% (Sep 5, 6:30 AM)30.27 "Hg (Sep 5, 6:30 AM)
Low50 °F (Sep 19, 6:30 AM)35% (Sep 10, 4:30 PM)29.77 "Hg (Sep 6, 2:00 PM)
Average67 °F77%29.99 "Hg
* Reported Sep 5 1:00 AM — Sep 20 1:30 AM, Skopje, Weather by CustomWeather, © 2014

Note: Actual official high and low records may vary slightly from our data, if they occured in-between our weather recording intervals... More about our weather records

Advertising

Skopje weather history for previous 24 hours

 ConditionsComfort  
Time TempWeatherWind HumidityBarometerVisibility
1:30 AM
Sep 20
61 °FPassing clouds.2 mph88%30.18 "HgN/A
1:00 AM61 °FPassing clouds.No wind88%30.18 "HgN/A
12:30 AM63 °FPassing clouds.7 mph83%30.18 "HgN/A
12:00 AM63 °FPassing clouds.No wind83%30.18 "HgN/A
11:30 PM
Sep 19
64 °FPassing clouds.2 mph78%30.18 "HgN/A
11:00 PM64 °FPassing clouds.1 mph83%30.18 "HgN/A
10:30 PM64 °FPassing clouds.2 mph83%30.18 "HgN/A
10:00 PM66 °FPassing clouds.No wind78%30.18 "HgN/A
9:30 PM66 °FPassing clouds.1 mph78%30.18 "HgN/A
9:00 PM66 °FPassing clouds.2 mph78%30.18 "HgN/A
8:30 PM70 °FPassing clouds.2 mph69%30.18 "HgN/A
8:00 PM68 °FPassing clouds.2 mph73%30.15 "HgN/A
7:30 PM70 °FSunny.1 mph69%30.15 "Hg10 mi
7:00 PM70 °FSunny.2 mph73%30.15 "Hg10 mi
6:30 PM73 °FSunny.2 mph61%30.15 "Hg10 mi
6:00 PM75 °FSunny.5 mph54%30.15 "Hg10 mi
5:30 PM77 °FSunny.5 mph51%30.15 "Hg10 mi
5:00 PM79 °FSunny.5 mph42%30.15 "Hg10 mi
4:30 PM79 °FSunny.3 mph42%30.15 "Hg10 mi
4:00 PM79 °FSunny.3 mph42%30.15 "Hg10 mi
3:30 PM79 °FSunny.1 mph45%30.15 "Hg10 mi
3:00 PM77 °FSunny.3 mph47%30.15 "Hg10 mi
2:30 PM77 °FSunny.5 mph47%30.18 "Hg10 mi
2:00 PM77 °FSunny.5 mph44%30.18 "Hg10 mi
1:30 PM75 °FSunny.3 mph47%30.18 "Hg10 mi
1:00 PM75 °FSunny.3 mph50%30.18 "Hg10 mi
12:30 PM73 °FSunny.2 mph53%30.21 "Hg10 mi
12:00 PM73 °FSunny.1 mph57%30.21 "Hg10 mi
11:30 AM70 °FPassing clouds.1 mph64%30.21 "HgN/A
11:00 AM68 °FPassing clouds.1 mph69%30.24 "HgN/A
10:30 AM66 °FSunny.No wind68%30.24 "Hg10 mi
10:00 AM66 °FSunny.No wind68%30.24 "Hg10 mi
9:30 AM63 °FSunny.1 mph77%30.27 "Hg10 mi
9:00 AM61 °FSunny.1 mph77%30.24 "Hg10 mi
8:30 AM59 °FSunny.1 mph82%30.24 "Hg10 mi
8:00 AM55 °FSunny.No wind94%30.24 "Hg10 mi
7:30 AM54 °FSunny.No wind94%30.24 "Hg10 mi
7:00 AM52 °FClear.2 mph94%30.24 "Hg10 mi
6:30 AM50 °FClear.No wind94%30.24 "Hg10 mi
4:30 AM52 °FClear.No wind94%30.21 "Hg10 mi
4:00 AM54 °FClear.No wind94%30.21 "Hg10 mi
3:30 AM54 °FClear.No wind94%30.21 "Hg10 mi
3:00 AM54 °FClear.No wind94%30.21 "Hg10 mi
2:30 AM54 °FClear.No wind94%30.21 "Hg10 mi
2:00 AM55 °FClear.No wind88%30.21 "Hg10 mi
Weather by CustomWeather, © 2014

See weather overviewHow to use our weather pages